Milwaukee, WI

1:39 AM CDT on September 26, 2017 (GMT -0500)
Gen Mitchell International

Weather History for KMKE - May, 2014

Change the Weather History Date:

Friday, May 30, 2014

  Actual Average Record
Temperature  
Mean Temperature 62 °F 60 °F  
Max Temperature 74 °F 70 °F 91 °F (1994)
Min Temperature 50 °F 51 °F 33 °F (1961)
Degree Days  
Heating Degree Days 3 6  
Month to date heating degree days 278 308  
Since 1 July heating degree days 7668 6805  
Cooling Degree Days 0 2  
Month to date cooling degree days 16 21  
Year to date cooling degree days 16 26  
Growing Degree Days 12 (Base 50)    
Moisture  
Dew Point 50 °F    
Average Humidity 66    
Maximum Humidity 86    
Minimum Humidity 46    
Precipitation  
Precipitation 0.00 in 0.11 in 1.39 in (2008)
Month to date precipitation 2.83 3.28  
Year to date precipitation 10.95 12.52  
Snow  
Snow 0.00 in 0.00 in 0.00 in ()
Month to date snowfall 0.0 0.1  
Since 1 July snowfall 63.4 46.9  
Snow Depth 0.00 in    
Sea Level Pressure  
Sea Level Pressure 30.19 in    
Wind  
Wind Speed 5 mph (NE)    
Max Wind Speed 12 mph    
Max Gust Speed 14 mph    
Visibility 10 miles    
Events      
T = Trace of Precipitation, MM = Missing Value Source: NWS Daily Summary

Daily Weather History Graph

Daily Weather History Graph

Search for Another Location

Airport or City:

Trip Planner

Search our weather history database for the weather conditions in past years. The results will help you decide how hot, cold, wet, or windy it might be!

Date:

Astronomy

May. 30, 2014 Rise Set
Actual Time 5:16 AM CDT 8:22 PM CDT
Civil Twilight 4:42 AM CDT 8:56 PM CDT
Nautical Twilight 3:58 AM CDT 9:40 PM CDT
Astronomical Twilight 3:06 AM CDT 10:33 PM CDT
Moon 7:01 AM CDT (5/30) 9:57 PM CDT (5/30)
Length of Visible Light 16h 14m
Length of Day
15h 05m
Waxing Crescent, 4% of the Moon is Illuminated
May 30
Waxing Crescent
Jun 5
First Quarter
Jun 12
Full
Jun 19
Last Quarter
Jun 27
New

Hourly Weather History & Observations

Time (CDT) Temp. Dew Point Humidity Pressure Visibility Wind Dir Wind Speed Gust Speed Precip Events Conditions
12:52 AM 53.1 °F 45.0 °F 74% 30.18 in 10.0 mi Calm Calm - N/A   Clear
1:52 AM 52.0 °F 45.0 °F 77% 30.17 in 10.0 mi WNW 3.5 mph - N/A   Clear
2:52 AM 52.0 °F 46.0 °F 80% 30.16 in 10.0 mi NW 4.6 mph - N/A   Clear
3:52 AM 50.0 °F 45.0 °F 83% 30.15 in 10.0 mi Calm Calm - N/A   Clear
4:52 AM 51.1 °F 45.0 °F 80% 30.16 in 10.0 mi Calm Calm - N/A   Partly Cloudy
5:52 AM 53.1 °F 46.0 °F 77% 30.20 in 10.0 mi NNE 4.6 mph - N/A   Scattered Clouds
6:52 AM 54.0 °F 48.0 °F 80% 30.22 in 10.0 mi NE 10.4 mph - N/A   Partly Cloudy
7:52 AM 55.0 °F 48.9 °F 80% 30.23 in 10.0 mi NE 6.9 mph - N/A   Partly Cloudy
8:52 AM 60.1 °F 50.0 °F 69% 30.22 in 10.0 mi Variable 3.5 mph - N/A   Partly Cloudy
9:52 AM 60.8 °F 51.8 °F 72% 30.23 in 10.0 mi ENE 6.9 mph - N/A   Partly Cloudy
10:52 AM 66.0 °F 54.0 °F 65% 30.23 in 10.0 mi NE 8.1 mph - N/A   Partly Cloudy
11:52 AM 64.9 °F 54.0 °F 68% 30.23 in 10.0 mi Variable 4.6 mph - N/A   Partly Cloudy
12:52 PM 71.1 °F 55.0 °F 57% 30.22 in 10.0 mi Variable 4.6 mph - N/A   Partly Cloudy
1:52 PM 72.0 °F 54.0 °F 53% 30.21 in 10.0 mi SE 6.9 mph - N/A   Partly Cloudy
2:52 PM 73.0 °F 55.0 °F 53% 30.20 in 10.0 mi East 10.4 mph - N/A   Partly Cloudy
3:52 PM 69.8 °F 53.6 °F 56% 30.20 in 10.0 mi ENE 6.9 mph - N/A   Partly Cloudy
4:52 PM 72.0 °F 54.0 °F 53% 30.18 in 10.0 mi East 4.6 mph - N/A   Clear
5:52 PM 73.0 °F 52.0 °F 48% 30.17 in 10.0 mi East 3.5 mph - N/A   Partly Cloudy
6:52 PM 70.0 °F 53.1 °F 55% 30.17 in 10.0 mi NE 6.9 mph - N/A   Partly Cloudy
7:52 PM 63.0 °F 51.1 °F 65% 30.17 in 10.0 mi ENE 4.6 mph - N/A   Partly Cloudy
8:52 PM 60.1 °F 51.1 °F 72% 30.17 in 10.0 mi Calm Calm - N/A   Partly Cloudy
9:52 PM 57.0 °F 52.0 °F 83% 30.18 in 9.0 mi NE 3.5 mph - N/A   Partly Cloudy
10:52 PM 55.9 °F 51.1 °F 84% 30.18 in 7.0 mi ENE 3.5 mph - N/A   Clear
11:52 PM 55.9 °F 52.0 °F 87% 30.19 in 6.0 mi Calm Calm - N/A   Clear